This demonstration page uses our WeatherBlox Daily Observations layout. Learn more.

Left ArrowRight Arrow

36.19886, -115.1175

Hourly Observations for February 7, 2021

Temp ( °F °C ) Dew Point ( °F °C ) Humidity (%) Winds ( mph kmh ) Pressure ( in mb ) Visibility ( mi km ) Precip ( " mm )
12:53 am 00:53 Clear 48 8.9 21 -6.1 34 34 WSW 7 11 29.96 1014 10 16 N/A
1:53 am 01:53 Clear 49 9.4 19 -7.2 31 31 N 3 6 29.95 1014 10 16 N/A
2:53 am 02:53 Clear 48 8.9 18 -7.8 30 30 N N/A 29.94 1014 10 16 N/A
3:53 am 03:53 Clear 47 8.3 17 -8.3 30 30 N N/A 29.94 1014 10 16 N/A
4:53 am 04:53 Clear 47 8.3 18 -7.8 31 31 WSW 3 6 29.95 1014 10 16 N/A
5:53 am 05:53 Clear 45 7.2 18 -7.8 34 34 N N/A 29.96 1015 10 16 N/A
6:53 am 06:53 Sunny 42 5.6 19 -7.2 40 40 W 3 6 29.99 1016 10 16 N/A
7:53 am 07:53 Sunny 49 9.4 20 -6.7 32 32 NNW 3 6 29.99 1016 10 16 N/A
8:53 am 08:53 Sunny 53 11.7 20 -6.7 27 27 N N/A 30.00 1016 10 16 N/A
9:53 am 09:53 Sunny 56 13.3 19 -7.2 24 24 N N/A 30.00 1016 10 16 N/A
10:53 am 10:53 Sunny 60 15.6 18 -7.8 19 19 N N/A 29.98 1015 10 16 N/A
11:53 am 11:53 Sunny 63 17.2 18 -7.8 17 17 ENE 3 6 29.95 1014 10 16 N/A
12:53 pm 12:53 Sunny 65 18.3 18 -7.8 16 16 VRB 3 6 29.92 1013 10 16 N/A
1:53 pm 13:53 Sunny 67 19.4 17 -8.3 15 15 N N/A 29.89 1012 10 16 N/A
2:53 pm 14:53 Sunny 69 20.6 16 -8.9 13 13 N N/A 29.87 1012 10 16 N/A
3:53 pm 15:53 Sunny 69 20.6 16 -8.9 13 13 E 3 6 29.86 1011 10 16 N/A
4:53 pm 16:53 Sunny 67 19.4 16 -8.9 14 14 E 5 7 29.86 1011 10 16 N/A
5:53 pm 17:53 Clear 63 17.2 16 -8.9 16 16 E 3 6 29.88 1012 10 16 N/A
6:53 pm 18:53 Clear 59 15 18 -7.8 20 20 N N/A 29.90 1013 10 16 N/A
7:53 pm 19:53 Clear 55 12.8 21 -6.1 26 26 W 9 15 29.90 1013 10 16 N/A
8:53 pm 20:53 Clear 54 12.2 23 -5 30 30 WNW 6 9 29.90 1012 10 16 N/A
9:53 pm 21:53 Clear 51 10.6 22 -5.6 32 32 NW 7 11 29.89 1012 10 16 N/A
10:53 pm 22:53 Clear 50 10 21 -6.1 32 32 NW 7 11 29.89 1012 10 16 N/A
11:53 pm 23:53 Clear 47 8.3 21 -6.1 36 36 WNW 3 6 29.89 1012 10 16 N/A

Powered by AerisWeather